Time,TemperatureF,DewpointF,PressureIn,WindDirection,WindDirectionDegrees,WindSpeedMPH,WindSpeedGustMPH,Humidity,HourlyPrecipIn,Conditions,Clouds,dailyrainin,SoftwareType,DateUTC
2013-03-25 00:03:00,43.0,-99.9,-100.00,West,261,12.0,-999.0,-999,-99.99,,,-99.99,,2013-03-25 04:03:00,
2013-03-25 00:13:00,43.0,-99.9,-100.00,West,261,12.0,-999.0,-999,-99.99,,,-99.99,,2013-03-25 04:13:00,
2013-03-25 00:23:00,41.0,-99.9,-100.00,West,268,14.0,-999.0,-999,-99.99,,,0.00,,2013-03-25 04:23:00,
2013-03-25 00:30:00,41.0,-99.9,-100.00,WSW,254,12.0,-999.0,-999,-99.99,,,-99.99,,2013-03-25 04:30:00,
2013-03-25 00:33:00,41.0,-99.9,-100.00,West,268,14.0,-999.0,-999,-99.99,,,0.00,,2013-03-25 04:33:00,
2013-03-25 00:43:00,41.0,-99.9,-100.00,West,268,14.0,-999.0,-999,-99.99,,,0.00,,2013-03-25 04:43:00,
2013-03-25 00:53:00,41.0,-99.9,-100.00,WSW,254,12.0,-999.0,-999,-99.99,,,-99.99,,2013-03-25 04:53:00,
2013-03-25 01:03:00,41.0,-99.9,-100.00,WSW,254,12.0,-999.0,-999,-99.99,,,-99.99,,2013-03-25 05:03:00,
2013-03-25 01:12:00,41.0,-99.9,-100.00,WSW,254,12.0,-999.0,-999,-99.99,,,-99.99,,2013-03-25 05:12:00,
2013-03-25 01:22:00,41.0,-99.9,-100.00,WSW,254,12.0,-999.0,-999,-99.99,,,-99.99,,2013-03-25 05:22:00,
2013-03-25 01:53:00,39.0,-99.9,-100.00,WSW,246,11.0,-999.0,-999,-99.99,,,-99.99,,2013-03-25 05:53:00,
2013-03-25 02:00:00,39.0,-99.9,-100.00,WSW,255,10.0,-999.0,-999,-99.99,,,-99.99,,2013-03-25 06:00:00,
2013-03-25 02:02:00,39.0,-99.9,-100.00,WSW,246,11.0,-999.0,-999,-99.99,,,-99.99,,2013-03-25 06:02:00,
2013-03-25 02:12:00,39.0,-99.9,-100.00,WSW,246,11.0,-999.0,-999,-99.99,,,-99.99,,2013-03-25 06:12:00,
2013-03-25 02:22:00,39.0,-99.9,-100.00,WSW,255,10.0,-999.0,-999,-99.99,,,-99.99,,2013-03-25 06:22:00,
2013-03-25 02:30:00,38.0,-99.9,-100.00,WSW,254,9.0,-999.0,-999,-99.99,,,-99.99,,2013-03-25 06:30:00,
2013-03-25 02:33:00,39.0,-99.9,-100.00,WSW,255,10.0,-999.0,-999,-99.99,,,-99.99,,2013-03-25 06:33:00,
2013-03-25 02:43:00,39.0,-99.9,-100.00,WSW,255,10.0,-999.0,-999,-99.99,,,-99.99,,2013-03-25 06:43:00,
2013-03-25 02:53:00,39.0,-99.9,-100.00,WSW,255,10.0,-999.0,-999,-99.99,,,-99.99,,2013-03-25 06:53:00,
2013-03-25 03:00:00,38.0,-99.9,-100.00,West,260,8.0,-999.0,-999,-99.99,,,0.00,,2013-03-25 07:00:00,
2013-03-25 03:13:00,38.0,-99.9,-100.00,WSW,254,9.0,-999.0,-999,-99.99,,,-99.99,,2013-03-25 07:13:00,
2013-03-25 03:22:00,38.0,-99.9,-100.00,WSW,254,9.0,-999.0,-999,-99.99,,,-99.99,,2013-03-25 07:22:00,
2013-03-25 03:30:00,37.0,-99.9,-100.00,WSW,257,9.0,-999.0,-999,-99.99,,,0.00,,2013-03-25 07:30:00,
2013-03-25 03:42:00,38.0,-99.9,-100.00,West,260,8.0,-999.0,-999,-99.99,,,0.00,,2013-03-25 07:42:00,
2013-03-25 03:53:00,38.0,-99.9,-100.00,West,260,8.0,-999.0,-999,-99.99,,,0.00,,2013-03-25 07:53:00,
2013-03-25 04:00:00,37.0,-99.9,-100.00,WSW,238,8.0,-999.0,-999,-99.99,,,-99.99,,2013-03-25 08:00:00,
2013-03-25 04:12:00,37.0,-99.9,-100.00,WSW,257,9.0,-999.0,-999,-99.99,,,0.00,,2013-03-25 08:12:00,
2013-03-25 04:23:00,37.0,-99.9,-100.00,WSW,257,9.0,-999.0,-999,-99.99,,,0.00,,2013-03-25 08:23:00,
2013-03-25 04:30:00,36.0,-99.9,-100.00,WSW,246,7.0,-999.0,-999,-99.99,,,-99.99,,2013-03-25 08:30:00,
2013-03-25 04:43:00,37.0,-99.9,-100.00,WSW,238,8.0,-999.0,-999,-99.99,,,-99.99,,2013-03-25 08:43:00,
2013-03-25 04:53:00,37.0,-99.9,-100.00,WSW,238,8.0,-999.0,-999,-99.99,,,-99.99,,2013-03-25 08:53:00,
2013-03-25 05:00:00,35.0,-99.9,-100.00,West,265,6.0,-999.0,-999,-99.99,,,-99.99,,2013-03-25 09:00:00,
2013-03-25 05:13:00,36.0,-99.9,-100.00,WSW,252,10.0,-999.0,-999,-99.99,,,-99.99,,2013-03-25 09:13:00,
2013-03-25 05:22:00,36.0,-99.9,-100.00,WSW,246,7.0,-999.0,-999,-99.99,,,-99.99,,2013-03-25 09:22:00,
2013-03-25 05:30:00,35.0,-99.9,-100.00,SSW,207,6.0,-999.0,-999,-99.99,,,-99.99,,2013-03-25 09:30:00,
2013-03-25 05:43:00,35.0,-99.9,-100.00,West,265,6.0,-999.0,-999,-99.99,,,-99.99,,2013-03-25 09:43:00,
2013-03-25 05:53:00,35.0,-99.9,-100.00,West,265,6.0,-999.0,-999,-99.99,,,-99.99,,2013-03-25 09:53:00,
2013-03-25 06:00:00,35.0,-99.9,-100.00,WSW,238,8.0,-999.0,-999,-99.99,,,-99.99,,2013-03-25 10:00:00,
2013-03-25 06:12:00,35.0,-99.9,-100.00,SSW,207,6.0,-999.0,-999,-99.99,,,-99.99,,2013-03-25 10:12:00,
2013-03-25 06:23:00,35.0,-99.9,-100.00,SSW,207,6.0,-999.0,-999,-99.99,,,-99.99,,2013-03-25 10:23:00,
2013-03-25 06:30:00,35.0,-99.9,-100.00,SW,223,7.0,-999.0,-999,-99.99,,,-99.99,,2013-03-25 10:30:00,
2013-03-25 06:43:00,35.0,-99.9,-100.00,WSW,238,8.0,-999.0,-999,-99.99,,,-99.99,,2013-03-25 10:43:00,
2013-03-25 06:54:00,35.0,-99.9,-100.00,WSW,238,8.0,-999.0,-999,-99.99,,,-99.99,,2013-03-25 10:54:00,
2013-03-25 07:12:00,35.0,-99.9,-100.00,SW,223,7.0,-999.0,-999,-99.99,,,-99.99,,2013-03-25 11:12:00,
2013-03-25 07:23:00,35.0,-99.9,-100.00,SW,223,7.0,-999.0,-999,-99.99,,,-99.99,,2013-03-25 11:23:00,
2013-03-25 07:43:00,34.0,-99.9,-100.00,SW,235,7.0,-999.0,-999,-99.99,,,-99.99,,2013-03-25 11:43:00,
2013-03-25 07:53:00,34.0,-99.9,-100.00,WSW,247,8.0,-999.0,-999,-99.99,,,0.00,,2013-03-25 11:53:00,
2013-03-25 08:03:00,34.0,-99.9,-100.00,WSW,247,8.0,-999.0,-999,-99.99,,,0.00,,2013-03-25 12:03:00,
2013-03-25 08:13:00,34.0,-99.9,-100.00,SW,226,6.0,-999.0,-999,-99.99,,,-99.99,,2013-03-25 12:13:00,
2013-03-25 08:24:00,34.0,-99.9,-100.00,SW,225,7.0,-999.0,-999,-99.99,,,0.00,,2013-03-25 12:24:00,
2013-03-25 08:33:00,34.0,-99.9,-100.00,SW,225,7.0,-999.0,-999,-99.99,,,0.00,,2013-03-25 12:33:00,
2013-03-25 08:43:00,34.0,-99.9,-100.00,SW,236,7.0,-999.0,-999,-99.99,,,0.00,,2013-03-25 12:43:00,
2013-03-25 08:54:00,35.0,-99.9,-100.00,WSW,251,7.0,-999.0,-999,-99.99,,,0.00,,2013-03-25 12:54:00,
2013-03-25 09:03:00,35.0,-99.9,-100.00,WSW,251,7.0,-999.0,-999,-99.99,,,0.00,,2013-03-25 13:03:00,
2013-03-25 09:13:00,35.0,-99.9,-100.00,WSW,251,7.0,-999.0,-999,-99.99,,,0.00,,2013-03-25 13:13:00,
2013-03-25 09:23:00,34.0,-99.9,-100.00,WSW,245,7.0,-999.0,-999,-99.99,,,0.00,,2013-03-25 13:23:00,
2013-03-25 09:32:00,34.0,-99.9,-100.00,WSW,245,7.0,-999.0,-999,-99.99,,,0.00,,2013-03-25 13:32:00,
2013-03-25 09:43:00,34.0,-99.9,-100.00,WSW,245,7.0,-999.0,-999,-99.99,,,0.00,,2013-03-25 13:43:00,
2013-03-25 09:53:00,35.0,-99.9,-100.00,WSW,238,7.0,-999.0,-999,-99.99,,,0.00,,2013-03-25 13:53:00,
2013-03-25 10:03:00,35.0,-99.9,-100.00,WSW,238,7.0,-999.0,-999,-99.99,,,0.00,,2013-03-25 14:03:00,
2013-03-25 10:13:00,35.0,-99.9,-100.00,WSW,238,7.0,-999.0,-999,-99.99,,,0.00,,2013-03-25 14:13:00,
2013-03-25 10:23:00,35.0,-99.9,-100.00,WSW,255,10.0,-999.0,-999,-99.99,,,0.00,,2013-03-25 14:23:00,
2013-03-25 10:33:00,35.0,-99.9,-100.00,WSW,255,10.0,-999.0,-999,-99.99,,,0.00,,2013-03-25 14:33:00,
2013-03-25 10:43:00,35.0,-99.9,-100.00,WSW,257,8.0,-999.0,-999,-99.99,,,0.00,,2013-03-25 14:43:00,
2013-03-25 10:53:00,35.0,-99.9,-100.00,WSW,255,8.0,-999.0,-999,-99.99,,,0.00,,2013-03-25 14:53:00,
2013-03-25 11:03:00,35.0,-99.9,-100.00,WSW,255,8.0,-999.0,-999,-99.99,,,0.00,,2013-03-25 15:03:00,
2013-03-25 11:13:00,35.0,-99.9,-100.00,WSW,250,7.0,-999.0,-999,-99.99,,,0.00,,2013-03-25 15:13:00,
2013-03-25 11:23:00,35.0,-99.9,-100.00,WSW,246,7.0,-999.0,-999,-99.99,,,0.00,,2013-03-25 15:23:00,
2013-03-25 11:33:00,35.0,-99.9,-100.00,WSW,246,7.0,-999.0,-999,-99.99,,,0.00,,2013-03-25 15:33:00,
2013-03-25 11:43:00,35.0,-99.9,-100.00,WSW,248,7.0,-999.0,-999,-99.99,,,0.00,,2013-03-25 15:43:00,
2013-03-25 11:54:00,36.0,-99.9,-100.00,WSW,245,8.0,-999.0,-999,-99.99,,,0.00,,2013-03-25 15:54:00,
2013-03-25 12:04:00,36.0,-99.9,-100.00,WSW,245,8.0,-999.0,-999,-99.99,,,0.00,,2013-03-25 16:04:00,
2013-03-25 12:13:00,36.0,-99.9,-100.00,WSW,245,8.0,-999.0,-999,-99.99,,,0.00,,2013-03-25 16:13:00,
2013-03-25 12:24:00,36.0,-99.9,-100.00,WSW,257,9.0,-999.0,-999,-99.99,,,0.00,,2013-03-25 16:24:00,
2013-03-25 12:34:00,36.0,-99.9,-100.00,WSW,257,9.0,-999.0,-999,-99.99,,,0.00,,2013-03-25 16:34:00,
2013-03-25 12:44:00,36.0,-99.9,-100.00,WSW,257,9.0,-999.0,-999,-99.99,,,0.00,,2013-03-25 16:44:00,
2013-03-25 12:53:00,37.0,-99.9,-100.00,West,265,9.0,-999.0,-999,-99.99,,,0.00,,2013-03-25 16:53:00,
2013-03-25 13:03:00,37.0,-99.9,-100.00,West,265,9.0,-999.0,-999,-99.99,,,0.00,,2013-03-25 17:03:00,
2013-03-25 13:13:00,37.0,-99.9,-100.00,West,260,9.0,-999.0,-999,-99.99,,,0.00,,2013-03-25 17:13:00,
2013-03-25 13:24:00,37.0,-99.9,-100.00,WSW,257,10.0,-999.0,-999,-99.99,,,0.00,,2013-03-25 17:24:00,
2013-03-25 13:33:00,37.0,-99.9,-100.00,WSW,257,10.0,-999.0,-999,-99.99,,,0.00,,2013-03-25 17:33:00,
2013-03-25 13:43:00,37.0,-99.9,-100.00,West,262,10.0,-999.0,-999,-99.99,,,0.00,,2013-03-25 17:43:00,
2013-03-25 13:53:00,37.0,-99.9,-100.00,WSW,250,10.0,-999.0,-999,-99.99,,,-99.99,,2013-03-25 17:53:00,
2013-03-25 14:04:00,37.0,-99.9,-100.00,WSW,250,10.0,-999.0,-999,-99.99,,,-99.99,,2013-03-25 18:04:00,
2013-03-25 14:13:00,37.0,-99.9,-100.00,WSW,250,10.0,-999.0,-999,-99.99,,,-99.99,,2013-03-25 18:13:00,
2013-03-25 14:23:00,37.0,-99.9,-100.00,West,265,11.0,-999.0,-999,-99.99,,,0.00,,2013-03-25 18:23:00,
2013-03-25 14:33:00,37.0,-99.9,-100.00,West,265,11.0,-999.0,-999,-99.99,,,0.00,,2013-03-25 18:33:00,
2013-03-25 14:43:00,37.0,-99.9,-100.00,West,265,11.0,-999.0,-999,-99.99,,,0.00,,2013-03-25 18:43:00,
2013-03-25 15:23:00,37.0,-99.9,-100.00,WSW,257,10.0,-999.0,-999,-99.99,,,0.00,,2013-03-25 19:23:00,
2013-03-25 15:33:00,37.0,-99.9,-100.00,WSW,257,10.0,-999.0,-999,-99.99,,,0.00,,2013-03-25 19:33:00,
2013-03-25 15:43:00,37.0,-99.9,-100.00,WSW,257,10.0,-999.0,-999,-99.99,,,0.00,,2013-03-25 19:43:00,
2013-03-25 15:53:00,37.0,-99.9,-100.00,West,277,9.0,-999.0,-999,-99.99,,,0.00,,2013-03-25 19:53:00,
2013-03-25 16:02:00,37.0,-99.9,-100.00,West,277,9.0,-999.0,-999,-99.99,,,0.00,,2013-03-25 20:02:00,
2013-03-25 16:12:00,37.0,-99.9,-100.00,West,271,10.0,-999.0,-999,-99.99,,,0.00,,2013-03-25 20:12:00,
2013-03-25 16:22:00,37.0,-99.9,-100.00,WSW,258,9.0,-999.0,-999,-99.99,,,0.00,,2013-03-25 20:22:00,
2013-03-25 16:32:00,37.0,-99.9,-100.00,WSW,258,9.0,-999.0,-999,-99.99,,,0.00,,2013-03-25 20:32:00,
2013-03-25 16:43:00,37.0,-99.9,-100.00,WSW,255,9.0,-999.0,-999,-99.99,,,0.00,,2013-03-25 20:43:00,
2013-03-25 16:53:00,37.0,-99.9,-100.00,WSW,250,8.0,-999.0,-999,-99.99,,,0.00,,2013-03-25 20:53:00,
2013-03-25 17:03:00,37.0,-99.9,-100.00,WSW,250,8.0,-999.0,-999,-99.99,,,0.00,,2013-03-25 21:03:00,
2013-03-25 17:13:00,37.0,-99.9,-100.00,West,263,8.0,-999.0,-999,-99.99,,,0.00,,2013-03-25 21:13:00,
2013-03-25 17:23:00,36.0,-99.9,-100.00,West,259,9.0,-999.0,-999,-99.99,,,0.00,,2013-03-25 21:23:00,
2013-03-25 17:33:00,36.0,-99.9,-100.00,West,259,9.0,-999.0,-999,-99.99,,,0.00,,2013-03-25 21:33:00,
2013-03-25 17:43:00,36.0,-99.9,-100.00,WSW,254,8.0,-999.0,-999,-99.99,,,0.00,,2013-03-25 21:43:00,
2013-03-25 17:52:00,36.0,-99.9,-100.00,WSW,245,9.0,-999.0,-999,-99.99,,,0.00,,2013-03-25 21:52:00,
2013-03-25 18:04:00,36.0,-99.9,-100.00,WSW,245,9.0,-999.0,-999,-99.99,,,0.00,,2013-03-25 22:04:00,
2013-03-25 18:13:00,35.0,-99.9,-100.00,WSW,255,9.0,-999.0,-999,-99.99,,,0.00,,2013-03-25 22:13:00,
2013-03-25 18:24:00,35.0,-99.9,-100.00,WSW,250,7.0,-999.0,-999,-99.99,,,0.00,,2013-03-25 22:24:00,
2013-03-25 18:33:00,35.0,-99.9,-100.00,WSW,250,7.0,-999.0,-999,-99.99,,,0.00,,2013-03-25 22:33:00,
2013-03-25 18:43:00,36.0,-99.9,-100.00,West,267,6.0,-999.0,-999,-99.99,,,0.00,,2013-03-25 22:43:00,
2013-03-25 18:53:00,35.0,-99.9,-100.00,West,263,9.0,-999.0,-999,-99.99,,,-99.99,,2013-03-25 22:53:00,
2013-03-25 19:03:00,35.0,-99.9,-100.00,West,263,9.0,-999.0,-999,-99.99,,,-99.99,,2013-03-25 23:03:00,
2013-03-25 19:12:00,36.0,-99.9,-100.00,WSW,251,9.0,-999.0,-999,-99.99,,,-99.99,,2013-03-25 23:12:00,
2013-03-25 19:23:00,36.0,-99.9,-100.00,West,259,8.0,-999.0,-999,-99.99,,,0.00,,2013-03-25 23:23:00,
2013-03-25 19:33:00,36.0,-99.9,-100.00,West,259,8.0,-999.0,-999,-99.99,,,0.00,,2013-03-25 23:33:00,
2013-03-25 19:43:00,36.0,-99.9,-100.00,West,267,8.0,-999.0,-999,-99.99,,,0.00,,2013-03-25 23:43:00,
2013-03-25 19:53:00,36.0,-99.9,-100.00,West,273,8.0,-999.0,-999,-99.99,,,0.00,,2013-03-25 23:53:00,
2013-03-25 20:02:00,36.0,-99.9,-100.00,West,273,8.0,-999.0,-999,-99.99,,,0.00,,2013-03-26 00:02:00,
2013-03-25 20:12:00,35.0,-99.9,-100.00,WSW,242,7.0,-999.0,-999,-99.99,,,0.00,,2013-03-26 00:12:00,
2013-03-25 20:23:00,35.0,-99.9,-100.00,West,268,8.0,-999.0,-999,-99.99,,,0.00,,2013-03-26 00:23:00,
2013-03-25 20:33:00,35.0,-99.9,-100.00,West,268,8.0,-999.0,-999,-99.99,,,0.00,,2013-03-26 00:33:00,
2013-03-25 20:43:00,35.0,-99.9,-100.00,West,268,8.0,-999.0,-999,-99.99,,,0.00,,2013-03-26 00:43:00,
2013-03-25 20:53:00,35.0,-99.9,-100.00,WSW,257,5.0,-999.0,-999,-99.99,,,0.00,,2013-03-26 00:53:00,
2013-03-25 21:02:00,35.0,-99.9,-100.00,WSW,257,5.0,-999.0,-999,-99.99,,,0.00,,2013-03-26 01:02:00,
2013-03-25 21:12:00,34.0,-99.9,-100.00,WSW,246,6.0,-999.0,-999,-99.99,,,0.00,,2013-03-26 01:12:00,
2013-03-25 21:23:00,34.0,-99.9,-100.00,WSW,252,5.0,-999.0,-999,-99.99,,,0.00,,2013-03-26 01:23:00,
2013-03-25 21:33:00,34.0,-99.9,-100.00,WSW,252,5.0,-999.0,-999,-99.99,,,0.00,,2013-03-26 01:33:00,
2013-03-25 21:42:00,34.0,-99.9,-100.00,West,261,6.0,-999.0,-999,-99.99,,,0.00,,2013-03-26 01:42:00,
2013-03-25 21:53:00,34.0,-99.9,-100.00,West,259,5.0,-999.0,-999,-99.99,,,0.00,,2013-03-26 01:53:00,
2013-03-25 22:02:00,34.0,-99.9,-100.00,West,259,5.0,-999.0,-999,-99.99,,,0.00,,2013-03-26 02:02:00,
2013-03-25 22:12:00,34.0,-99.9,-100.00,West,272,5.0,-999.0,-999,-99.99,,,0.00,,2013-03-26 02:12:00,
2013-03-25 22:23:00,34.0,-99.9,-100.00,WSW,243,3.0,-999.0,-999,-99.99,,,0.00,,2013-03-26 02:23:00,
2013-03-25 22:32:00,34.0,-99.9,-100.00,WSW,243,3.0,-999.0,-999,-99.99,,,0.00,,2013-03-26 02:32:00,
2013-03-25 22:43:00,34.0,-99.9,-100.00,SW,234,3.0,-999.0,-999,-99.99,,,0.00,,2013-03-26 02:43:00,
2013-03-25 22:53:00,34.0,-99.9,-100.00,WSW,238,5.0,-999.0,-999,-99.99,,,-99.99,,2013-03-26 02:53:00,
2013-03-25 23:02:00,34.0,-99.9,-100.00,WSW,238,5.0,-999.0,-999,-99.99,,,-99.99,,2013-03-26 03:02:00,
2013-03-25 23:13:00,34.0,-99.9,-100.00,WSW,256,5.0,-999.0,-999,-99.99,,,0.00,,2013-03-26 03:13:00,
2013-03-25 23:23:00,34.0,-99.9,-100.00,West,259,5.0,-999.0,-999,-99.99,,,-99.99,,2013-03-26 03:23:00,
2013-03-25 23:34:00,34.0,-99.9,-100.00,West,259,5.0,-999.0,-999,-99.99,,,-99.99,,2013-03-26 03:34:00,
2013-03-25 23:43:00,34.0,-99.9,-100.00,WSW,248,6.0,-999.0,-999,-99.99,,,0.00,,2013-03-26 03:43:00,
2013-03-25 23:53:00,33.0,-99.9,-100.00,WSW,247,6.0,-999.0,-999,-99.99,,,-99.99,,2013-03-26 03:53:00,